FW5134 Weather Reports


time (UTC)temp
C
wind
direction
speed
KPH
gust
KPH
rain 1hr
cm
rain 24hr
cm
rain mn
cm
humidity
%
barometer
mb
20260506194509 13 15 0.0 4.8 0.00 0.08 0.08 92 1014.2
20260506193005 13 16 0.0 4.8 0.00 0.08 0.08 92 1013.9
20260506191600 13 15 0.0 3.2 0.03 0.08 0.08 91 1013.7
20260506190048 13 320 0.0 4.8 0.05 0.10 0.08 91 1013.5
20260506184552 13 5 0.0 6.4 0.05 0.10 0.08 90 1013.4
20260506183043 13 5 1.6 6.4 0.05 0.10 0.08 89 1013.1
20260506181542 13 25 0.0 6.4 0.05 0.08 0.05 88 1013.2
20260506180040 13 33 4.8 9.7 0.00 0.46 0.03 86 1012.8
20260506174540 13 25 4.8 14.5 0.00 0.46 0.03 86 1012.7
20260506173046 13 48 4.8 11.3 0.00 0.46 0.03 84 1012.5
20260506171550 13 64 6.4 14.5 0.00 0.46 0.03 83 1012.3
20260506170138 14 51 6.4 22.5 0.00 0.46 0.03 81 1012.5
20260506164604 15 32 6.4 16.1 0.00 0.46 0.03 76 1012.2
20260506164503 15 28 6.4 16.1 0.00 0.46 0.03 75 1012.2
20260506163113 17 120 1.6 8.0 0.00 0.46 0.03 74 1011.9
20260506161600 17 144 3.2 14.5 0.00 0.46 0.03 73 1011.5
20260506160025 18 338 4.8 17.7 0.00 0.46 0.03 73 1011.2
20260506154601 17 205 4.8 17.7 0.00 0.46 0.03 74 1011.2
20260506153053 18 199 6.4 17.7 0.00 0.46 0.03 72 1011.0
20260506151544 18 237 4.8 19.3 0.00 0.46 0.03 71 1011.0
20260506150043 18 189 6.4 17.7 0.00 0.46 0.03 70 1011.1
20260506144544 18 142 6.4 20.9 0.00 0.46 0.03 70 1011.0
20260506141539 18 153 4.8 16.1 0.00 0.46 0.03 70 1011.2
20260506140050 18 152 6.4 17.7 0.00 0.46 0.03 70 1011.5
20260506134539 17 225 6.4 19.3 0.00 0.46 0.03 72 1011.6
20260506131533 17 197 3.2 14.5 0.00 0.46 0.03 71 1012.0
20260506130038 17 178 8.0 19.3 0.00 0.46 0.03 72 1012.1
20260506124539 17 171 4.8 12.9 0.00 0.46 0.03 73 1012.3
20260506121549 17 136 3.2 14.5 0.00 0.46 0.03 69 1012.4
20260506120013 17 225 3.2 11.3 0.00 0.61 0.03 70 1012.4
20260506114549 17 36 3.2 11.3 0.00 0.61 0.03 72 1012.3
20260506113042 17 146 4.8 14.5 0.00 0.61 0.03 74 1012.4
20260506111512 16 203 4.8 14.5 0.00 0.61 0.03 74 1012.6
20260506110012 17 114 6.4 17.7 0.00 0.61 0.03 72 1012.6
20260506104553 17 40 6.4 17.7 0.00 0.61 0.03 71 1012.5
20260506103052 18 168 6.4 20.9 0.00 0.61 0.03 71 1012.4
20260506101550 18 189 3.2 12.9 0.00 0.61 0.03 73 1012.7
20260506100033 17 193 9.7 17.7 0.00 0.61 0.03 73 1012.8
20260506094530 17 115 3.2 14.5 0.00 0.61 0.03 73 1012.9
20260506093047 17 312 1.6 9.7 0.00 0.61 0.03 75 1012.9
20260506091523 16 226 3.2 9.7 0.00 0.61 0.03 78 1012.8
20260506090021 16 220 0.0 4.8 0.00 0.61 0.03 79 1012.8
20260506084521 16 228 0.0 4.8 0.00 0.61 0.03 79 1012.9
20260506083017 15 273 1.6 9.7 0.00 0.61 0.03 82 1012.8
20260506081511 14 218 0.0 8.0 0.00 0.61 0.03 85 1012.7
20260506073005 12 204 0.0 3.2 0.00 0.61 0.03 95 1012.7
20260506071548 12 218 0.0 3.2 0.00 0.61 0.03 96 1012.5
20260506061558 10 241 0.0 0.0 0.00 0.61 0.03 95 1012.5
20260506044558 8 241 0.0 0.0 0.00 0.61 0.03 95 1011.6
20260506043053 8 241 0.0 0.0 0.00 0.61 0.03 95 1011.3
20260506041604 9 241 0.0 0.0 0.00 0.61 0.03 95 1011.4
20260506040135 9 241 0.0 0.0 0.00 0.61 0.03 95 1011.3
20260506034528 9 241 0.0 0.0 0.00 0.61 0.03 95 1011.3
20260506033027 9 241 0.0 0.0 0.00 0.61 0.03 95 1011.4
20260506031525 9 237 0.0 0.0 0.00 0.61 0.03 95 1011.4
20260506030023 9 237 0.0 0.0 0.03 0.61 0.03 95 1011.4
20260506024523 10 237 0.0 0.0 0.03 0.61 0.03 95 1011.2
20260506023022 10 237 0.0 0.0 0.03 0.61 0.03 95 1011.3
20260506021519 10 235 0.0 3.2 0.03 0.61 0.03 95 1011.2
20260506020030 10 220 0.0 3.2 0.00 0.58 0.00 95 1011.1
20260506014517 10 219 0.0 6.4 0.00 0.58 0.00 95 1011.2
20260506013019 10 260 0.0 1.6 0.00 0.58 0.00 94 1011.2
20260506011504 10 169 0.0 0.0 0.00 0.58 0.00 94 1011.2
20260506010038 10 169 0.0 0.0 0.00 0.58 0.00 94 1011.2
20260506004519 10 169 0.0 0.0 0.00 0.58 0.00 94 1011.4
20260506003005 10 169 0.0 0.0 0.00 0.58 0.00 94 1011.6
20260506001502 10 169 0.0 0.0 0.00 0.58 0.00 94 1011.7
20260506000124 10 169 0.0 0.0 0.00 0.58 0.00 94 1011.5
20260505234615 11 169 0.0 0.0 0.00 0.58 0.00 94 1011.6
20260505233058 11 169 0.0 0.0 0.00 0.58 0.00 94 1011.7
20260505231558 11 169 0.0 0.0 0.00 0.58 0.00 94 1011.8
20260505230052 11 169 0.0 0.0 0.00 0.58 0.00 94 1012.1
20260505224553 11 126 1.6 4.8 0.00 0.58 0.00 94 1011.9
20260505223050 11 53 0.0 0.0 0.00 0.58 0.00 94 1012.1
20260505221556 11 51 0.0 0.0 0.00 0.58 0.00 94 1012.2
20260505220013 11 51 0.0 0.0 0.00 0.58 0.58 93 1012.2
20260505214514 11 52 0.0 0.0 0.00 0.58 0.58 93 1012.4
20260505213047 11 52 0.0 0.0 0.00 0.58 0.58 93 1012.3
20260505211614 11 52 0.0 0.0 0.00 0.58 0.58 93 1012.4
20260505210146 11 52 1.6 9.7 0.00 0.58 0.58 93 1012.4
20260505204531 12 13 4.8 11.3 0.00 0.58 0.58 93 1012.3
20260505203031 12 53 6.4 17.7 0.00 0.58 0.58 93 1011.9
20260505201537 12 45 3.2 11.3 0.00 0.58 0.58 93 1011.3
20260505200002 11 173 0.0 3.2 0.00 0.58 0.58 93 1011.2